Starlink 32900

operational
NORAD ID: 63093 Int'l Des: 2025-037 Owner: SPXS Country: US Constellation: starlink
LEOCIRCULAR

Starlink 32900について

説明を読み込み中...

リアルタイム位置

3D地球を読み込み中...

次回通過

高度履歴

Altitude vs Time

uPlot chart will show altitude changes over time

軌道要素

1 63093U 25037S 25258.91618981 .00004790 00000-0 40878-3 0 9993
2 63093 70.0016 75.0839 0003030 274.2773 85.8040 14.98343083 32280
Epoch: Sep 15, 2025 • Age: 17 hours

現在のステータス

高度 582.4 km
速度 7.57 km/s
衛星直下点 -32.10°S, 46.16°E
打ち上げ日 Feb 23, 2025
運用期間 0.5 years
タイプ internet

技術仕様

分類 Payload
質量 730.00 kg
乾燥質量 700.00 kg
総質量 730.00 kg
長さ 0.30 m
直径 4.10 m
スパン 29.00 m
形状 Box + pan
製造者 SPXS
バスタイプ Starlink V2M
フェーズステータス In Orbit
所有者/国 SPXS/US

大規模コンステレーション

Loading constellations...